MAS861 WIMM-WMKK

Flight info

Callsign MAS861
Flight time 1h 0m
Altitude 25000
Route PUGER PUGER1J
Aircraft B738/M-SDE2E3FGHIRWXY/LB1

Departure

Time 2026-05-08 19:25
Airport Kualanamu International Airport (WIMM)

Arrival

Time 2026-05-08 20:25
Airport Kuala Lumpur International Airport (WMKK)
Time Latitude Longitude Altitude Speed Heading
2026-05-08 19:00 3.63975 98.88113 31 ft 0 kts 135°
2026-05-08 19:17 3.63981 98.88107 32 ft 4 kts 133°
2026-05-08 19:17 3.63998 98.88087 32 ft 4 kts 124°
2026-05-08 19:17 3.64011 98.88063 32 ft 4 kts 110°
2026-05-08 19:18 3.64015 98.88054 32 ft 1 kts 106°
2026-05-08 19:21 3.64016 98.88058 32 ft 2 kts 76°
2026-05-08 19:21 3.64053 98.88093 32 ft 13 kts 44°
2026-05-08 19:21 3.64138 98.88176 31 ft 18 kts 44°
2026-05-08 19:22 3.64245 98.88165 32 ft 18 kts 316°
2026-05-08 19:22 3.64331 98.88080 32 ft 17 kts 315°
2026-05-08 19:22 3.64429 98.88079 32 ft 17 kts 41°
2026-05-08 19:22 3.64511 98.88159 31 ft 16 kts 45°
2026-05-08 19:23 3.64587 98.88234 31 ft 15 kts 45°
2026-05-08 19:23 3.64662 98.88310 32 ft 16 kts 45°
2026-05-08 19:23 3.64764 98.88403 31 ft 21 kts 25°
2026-05-08 19:23 3.64884 98.88335 31 ft 21 kts 318°
2026-05-08 19:24 3.64952 98.88223 30 ft 20 kts 243°
2026-05-08 19:24 3.64843 98.88108 31 ft 39 kts 224°
2026-05-08 19:24 3.64482 98.87750 31 ft 105 kts 224°
2026-05-08 19:24 3.63829 98.87100 35 ft 157 kts 223°
2026-05-08 19:25 3.62972 98.86292 405 ft 172 kts 221°
2026-05-08 19:25 3.62052 98.85496 967 ft 182 kts 220°
2026-05-08 19:25 3.61078 98.84625 1552 ft 189 kts 222°
2026-05-08 19:25 3.60123 98.83677 2008 ft 206 kts 226°
2026-05-08 19:26 3.58944 98.82753 2171 ft 228 kts 199°
2026-05-08 19:26 3.57328 98.82769 2384 ft 244 kts 157°
2026-05-08 19:26 3.55893 98.83779 2623 ft 262 kts 136°
2026-05-08 19:26 3.54545 98.85048 3222 ft 269 kts 136°
2026-05-08 19:27 3.53178 98.86327 3937 ft 270 kts 137°
2026-05-08 19:27 3.51777 98.87605 4657 ft 273 kts 137°
2026-05-08 19:27 3.50350 98.88876 5334 ft 276 kts 138°
2026-05-08 19:27 3.48899 98.90145 6047 ft 278 kts 139°
2026-05-08 19:28 3.47423 98.91418 6743 ft 281 kts 139°
2026-05-08 19:28 3.45932 98.92692 7440 ft 283 kts 139°
2026-05-08 19:28 3.44425 98.93971 8157 ft 285 kts 140°
2026-05-08 19:28 3.42919 98.95244 8875 ft 288 kts 140°
2026-05-08 19:29 3.41377 98.96543 9628 ft 291 kts 140°
2026-05-08 19:29 3.39825 98.97848 10303 ft 295 kts 140°
2026-05-08 19:29 3.38195 98.99217 10522 ft 318 kts 140°
2026-05-08 19:29 3.36442 99.00687 10691 ft 339 kts 140°
2026-05-08 19:30 3.34579 99.02248 10843 ft 359 kts 141°
2026-05-08 19:30 3.32631 99.03882 11209 ft 369 kts 141°
2026-05-08 19:30 3.30654 99.05540 11800 ft 372 kts 141°
2026-05-08 19:30 3.28673 99.07201 12461 ft 373 kts 141°
2026-05-08 19:31 3.26679 99.08872 13100 ft 375 kts 141°
2026-05-08 19:31 3.24669 99.10557 13715 ft 378 kts 141°
2026-05-08 19:31 3.22642 99.12256 14262 ft 381 kts 141°
2026-05-08 19:31 3.20601 99.13966 14811 ft 385 kts 141°
2026-05-08 19:32 3.18542 99.15693 15346 ft 388 kts 141°
2026-05-08 19:32 3.16458 99.17439 15807 ft 392 kts 141°
2026-05-08 19:32 3.14367 99.19191 15862 ft 392 kts 141°
2026-05-08 19:32 3.12275 99.20944 15874 ft 393 kts 140°
2026-05-08 19:33 3.10412 99.22940 15859 ft 395 kts 123°
2026-05-08 19:33 3.09360 99.25473 15872 ft 397 kts 104°
2026-05-08 19:33 3.09102 99.28226 15875 ft 400 kts 88°
2026-05-08 19:33 3.09643 99.30922 15878 ft 403 kts 75°
2026-05-08 19:34 3.10473 99.33598 15874 ft 403 kts 73°
2026-05-08 19:34 3.11338 99.36273 15868 ft 404 kts 73°
2026-05-08 19:34 3.12203 99.38949 15862 ft 404 kts 73°
2026-05-08 19:34 3.13057 99.41627 15859 ft 404 kts 74°
2026-05-08 19:35 3.13902 99.44317 15867 ft 404 kts 74°
2026-05-08 19:35 3.14735 99.46998 15863 ft 404 kts 74°
2026-05-08 19:35 3.15565 99.49681 15863 ft 404 kts 74°
2026-05-08 19:35 3.16394 99.52366 15863 ft 403 kts 74°
2026-05-08 19:36 3.17222 99.55052 15861 ft 403 kts 74°
2026-05-08 19:36 3.18048 99.57729 15860 ft 403 kts 74°
2026-05-08 19:36 3.18874 99.60408 15860 ft 403 kts 74°
2026-05-08 19:36 3.19701 99.63087 15861 ft 403 kts 74°
2026-05-08 19:37 3.20528 99.65764 15861 ft 404 kts 74°
2026-05-08 19:37 3.21363 99.68466 16275 ft 408 kts 74°
2026-05-08 19:37 3.22204 99.71182 16885 ft 408 kts 74°
2026-05-08 19:37 3.23046 99.73903 17470 ft 410 kts 74°
2026-05-08 19:38 3.23892 99.76637 17964 ft 413 kts 74°
2026-05-08 19:38 3.24744 99.79390 18407 ft 416 kts 74°
2026-05-08 19:38 3.25594 99.82138 18843 ft 418 kts 74°
2026-05-08 19:38 3.26452 99.84915 19321 ft 419 kts 74°
2026-05-08 19:39 3.27313 99.87697 19878 ft 417 kts 74°
2026-05-08 19:39 3.28172 99.90476 20322 ft 419 kts 74°
2026-05-08 19:39 3.29037 99.93276 20691 ft 422 kts 74°
2026-05-08 19:39 3.29906 99.96087 21077 ft 425 kts 74°
2026-05-08 19:40 3.30780 99.98917 21482 ft 427 kts 74°
2026-05-08 19:40 3.31660 100.01763 21873 ft 428 kts 74°
2026-05-08 19:40 3.32255 100.03690 22136 ft 430 kts 74°
2026-05-08 19:40 3.33141 100.06557 22511 ft 432 kts 74°
2026-05-08 19:41 3.34028 100.09429 22870 ft 433 kts 74°
2026-05-08 19:41 3.34909 100.12281 23222 ft 435 kts 74°
2026-05-08 19:41 3.35801 100.15189 23538 ft 437 kts 74°
2026-05-08 19:41 3.36677 100.18103 23829 ft 439 kts 74°
2026-05-08 19:42 3.37550 100.21029 24119 ft 440 kts 74°
2026-05-08 19:42 3.38430 100.23968 24455 ft 440 kts 74°
2026-05-08 19:42 3.39310 100.26901 24747 ft 441 kts 74°
2026-05-08 19:42 3.39957 100.29905 24830 ft 444 kts 87°
2026-05-08 19:43 3.39778 100.32996 24881 ft 447 kts 96°
2026-05-08 19:43 3.39449 100.36101 24867 ft 451 kts 96°
2026-05-08 19:43 3.39127 100.39240 24870 ft 455 kts 96°
2026-05-08 19:43 3.38816 100.42410 24867 ft 459 kts 95°
2026-05-08 19:44 3.38515 100.45591 24860 ft 462 kts 95°
2026-05-08 19:44 3.38220 100.48806 24859 ft 464 kts 95°
2026-05-08 19:44 3.37927 100.52037 24859 ft 467 kts 95°
2026-05-08 19:44 3.37639 100.55231 24856 ft 467 kts 95°
2026-05-08 19:45 3.37347 100.58476 24857 ft 468 kts 95°
2026-05-08 19:45 3.37053 100.61721 24858 ft 468 kts 95°
2026-05-08 19:45 3.36760 100.64963 24853 ft 468 kts 95°
2026-05-08 19:45 3.36465 100.68209 24672 ft 466 kts 95°
2026-05-08 19:46 3.36173 100.71431 24448 ft 464 kts 95°
2026-05-08 19:46 3.35880 100.74648 24235 ft 465 kts 95°
2026-05-08 19:46 3.35295 100.81091 23804 ft 464 kts 95°
2026-05-08 19:47 3.35003 100.84300 23588 ft 462 kts 95°
2026-05-08 19:47 3.34712 100.87498 23364 ft 461 kts 95°
2026-05-08 19:47 3.34423 100.90688 23105 ft 460 kts 95°
2026-05-08 19:47 3.34145 100.93867 22849 ft 458 kts 95°
2026-05-08 19:48 3.33872 100.97041 22594 ft 456 kts 95°
2026-05-08 19:48 3.33603 101.00198 22341 ft 454 kts 95°
2026-05-08 19:48 3.33335 101.03343 22091 ft 453 kts 95°
2026-05-08 19:48 3.33066 101.06475 21842 ft 451 kts 95°
2026-05-08 19:49 3.32798 101.09595 21596 ft 449 kts 95°
2026-05-08 19:49 3.32531 101.12700 21350 ft 448 kts 95°
2026-05-08 19:49 3.32262 101.15809 21111 ft 446 kts 95°
2026-05-08 19:49 3.31996 101.18900 20870 ft 445 kts 95°
2026-05-08 19:50 3.31729 101.21979 20632 ft 443 kts 95°
2026-05-08 19:50 3.31468 101.25007 20400 ft 442 kts 95°
2026-05-08 19:50 3.31203 101.28067 20166 ft 441 kts 95°
2026-05-08 19:50 3.30939 101.31122 19940 ft 439 kts 95°
2026-05-08 19:51 3.30676 101.34164 19711 ft 438 kts 95°
2026-05-08 19:51 3.30414 101.37192 19471 ft 436 kts 95°
2026-05-08 19:51 3.30153 101.40209 19256 ft 434 kts 95°
2026-05-08 19:51 3.29893 101.43214 19036 ft 433 kts 95°
2026-05-08 19:52 3.29633 101.46208 18809 ft 431 kts 95°
2026-05-08 19:52 3.29375 101.49190 18588 ft 430 kts 95°
2026-05-08 19:52 3.29116 101.52172 18368 ft 429 kts 95°
2026-05-08 19:52 3.28859 101.55133 18145 ft 427 kts 95°
2026-05-08 19:53 3.28603 101.58094 17892 ft 426 kts 95°
2026-05-08 19:53 3.28346 101.61049 17637 ft 425 kts 95°
2026-05-08 19:53 3.28090 101.63997 17390 ft 424 kts 96°
2026-05-08 19:53 3.27836 101.66927 17137 ft 423 kts 96°
2026-05-08 19:54 3.27580 101.69871 16887 ft 422 kts 95°
2026-05-08 19:54 3.27315 101.72795 16645 ft 422 kts 98°
2026-05-08 19:54 3.26506 101.75592 16380 ft 421 kts 117°
2026-05-08 19:54 3.24893 101.78023 16165 ft 419 kts 131°
2026-05-08 19:55 3.22793 101.80038 15936 ft 419 kts 138°
2026-05-08 19:55 3.20588 101.81943 15697 ft 418 kts 139°
2026-05-08 19:55 3.18377 101.83823 15454 ft 417 kts 139°
2026-05-08 19:55 3.16172 101.85701 15221 ft 416 kts 139°
2026-05-08 19:56 3.13978 101.87584 14989 ft 415 kts 139°
2026-05-08 19:56 3.11825 101.89446 14755 ft 413 kts 139°
2026-05-08 19:56 3.09660 101.91328 14528 ft 412 kts 139°
2026-05-08 19:56 3.07501 101.93210 14300 ft 411 kts 139°
2026-05-08 19:57 3.05352 101.95088 14081 ft 409 kts 139°
2026-05-08 19:57 3.03215 101.96956 13854 ft 408 kts 139°
2026-05-08 19:57 3.01077 101.98824 13628 ft 407 kts 139°
2026-05-08 19:57 2.98946 102.00686 13370 ft 407 kts 139°
2026-05-08 19:58 2.96813 102.02550 13102 ft 406 kts 139°
2026-05-08 19:58 2.94686 102.04408 12866 ft 406 kts 139°
2026-05-08 19:58 2.92559 102.06267 12618 ft 405 kts 140°
2026-05-08 19:58 2.90438 102.08120 12374 ft 405 kts 140°
2026-05-08 19:59 2.88319 102.09970 12130 ft 404 kts 139°
2026-05-08 19:59 2.86202 102.11819 11884 ft 403 kts 139°
2026-05-08 19:59 2.84091 102.13663 11646 ft 402 kts 139°
2026-05-08 19:59 2.81988 102.15500 11400 ft 401 kts 140°
2026-05-08 20:00 2.79894 102.17329 11169 ft 398 kts 139°
2026-05-08 20:00 2.77815 102.19145 11085 ft 397 kts 139°
2026-05-08 20:00 2.75730 102.20967 11053 ft 397 kts 140°
2026-05-08 20:00 2.73652 102.22782 11048 ft 397 kts 140°
2026-05-08 20:01 2.71568 102.24601 11044 ft 397 kts 139°
2026-05-08 20:01 2.69437 102.26345 11033 ft 396 kts 147°
2026-05-08 20:01 2.67050 102.27644 11042 ft 395 kts 155°
2026-05-08 20:01 2.64588 102.28807 11028 ft 384 kts 155°
2026-05-08 20:02 2.62211 102.29926 11027 ft 371 kts 155°
2026-05-08 20:02 2.59927 102.31020 11021 ft 358 kts 154°
2026-05-08 20:02 2.57729 102.32092 11020 ft 345 kts 154°
2026-05-08 20:02 2.55612 102.33137 11017 ft 333 kts 154°
2026-05-08 20:03 2.53565 102.34154 11019 ft 325 kts 154°
2026-05-08 20:03 2.51560 102.35153 11019 ft 320 kts 154°
2026-05-08 20:03 2.49581 102.36140 11021 ft 314 kts 154°
2026-05-08 20:03 2.47648 102.37103 11020 ft 307 kts 154°
2026-05-08 20:04 2.45762 102.38042 11019 ft 298 kts 154°
2026-05-08 20:04 2.43931 102.38947 11016 ft 289 kts 157°
2026-05-08 20:04 2.42022 102.39354 11019 ft 277 kts 184°
2026-05-08 20:04 2.40191 102.38877 11028 ft 271 kts 208°
2026-05-08 20:05 2.38721 102.37734 11036 ft 269 kts 229°
2026-05-08 20:05 2.37726 102.36136 11036 ft 275 kts 248°
2026-05-08 20:05 2.37024 102.34365 11034 ft 279 kts 243°
2026-05-08 20:05 2.35760 102.32913 10986 ft 276 kts 212°
2026-05-08 20:06 2.33989 102.32204 10868 ft 275 kts 193°
2026-05-08 20:06 2.32114 102.31821 10745 ft 275 kts 191°
2026-05-08 20:06 2.30230 102.31451 10623 ft 276 kts 191°
2026-05-08 20:06 2.28347 102.31072 10492 ft 277 kts 192°
2026-05-08 20:07 2.26486 102.30585 10345 ft 277 kts 205°
2026-05-08 20:07 2.24855 102.29607 10239 ft 277 kts 213°
2026-05-08 20:07 2.23237 102.28560 10107 ft 278 kts 212°
2026-05-08 20:07 2.21602 102.27529 9979 ft 277 kts 212°
2026-05-08 20:08 2.19973 102.26515 9841 ft 274 kts 212°
2026-05-08 20:08 2.18394 102.25470 9703 ft 270 kts 222°
2026-05-08 20:08 2.17185 102.24052 9579 ft 267 kts 233°
2026-05-08 20:08 2.16063 102.22566 9451 ft 267 kts 232°
2026-05-08 20:09 2.14926 102.21098 9322 ft 267 kts 232°
2026-05-08 20:09 2.13783 102.19643 9195 ft 266 kts 231°
2026-05-08 20:09 2.12645 102.18188 9067 ft 266 kts 234°
2026-05-08 20:09 2.11855 102.16526 8938 ft 265 kts 253°
2026-05-08 20:10 2.11324 102.14764 8824 ft 265 kts 252°
2026-05-08 20:10 2.10767 102.13003 8701 ft 265 kts 252°
2026-05-08 20:10 2.10199 102.11252 8578 ft 265 kts 251°
2026-05-08 20:10 2.09623 102.09498 8455 ft 266 kts 251°
2026-05-08 20:11 2.09250 102.07691 8311 ft 267 kts 270°
2026-05-08 20:11 2.09334 102.05849 8215 ft 266 kts 272°
2026-05-08 20:11 2.09422 102.04002 8092 ft 266 kts 272°
2026-05-08 20:11 2.09627 102.02168 7947 ft 267 kts 288°
2026-05-08 20:12 2.10609 102.00615 7835 ft 267 kts 317°
2026-05-08 20:12 2.12210 101.99706 7713 ft 267 kts 345°
2026-05-08 20:12 2.14032 101.99588 7605 ft 267 kts
2026-05-08 20:12 2.15858 101.99929 7490 ft 267 kts 11°
2026-05-08 20:13 2.17700 102.00329 7357 ft 268 kts 12°
2026-05-08 20:13 2.19518 102.00729 7225 ft 268 kts 12°
2026-05-08 20:13 2.21313 102.01118 7101 ft 267 kts 11°
2026-05-08 20:13 2.23155 102.01512 6973 ft 267 kts 11°
2026-05-08 20:14 2.24946 102.01891 6844 ft 266 kts 11°
2026-05-08 20:14 2.26758 102.02272 6715 ft 265 kts 11°
2026-05-08 20:14 2.28559 102.02649 6601 ft 264 kts 11°
2026-05-08 20:14 2.30350 102.03022 6475 ft 262 kts 11°
2026-05-08 20:15 2.32122 102.03391 6353 ft 258 kts 11°
2026-05-08 20:15 2.33861 102.03755 6221 ft 252 kts 11°
2026-05-08 20:15 2.35568 102.04005 6075 ft 245 kts 354°
2026-05-08 20:15 2.37123 102.03462 6028 ft 236 kts 323°
2026-05-08 20:16 2.38237 102.02266 5878 ft 236 kts 299°
2026-05-08 20:16 2.38883 102.00773 5754 ft 233 kts 289°
2026-05-08 20:16 2.39402 101.99272 5610 ft 230 kts 288°
2026-05-08 20:16 2.39915 101.97774 5460 ft 228 kts 289°
2026-05-08 20:17 2.40437 101.96271 5353 ft 229 kts 289°
2026-05-08 20:17 2.41221 101.94896 5192 ft 232 kts 319°
2026-05-08 20:17 2.42560 101.94014 5116 ft 231 kts 326°
2026-05-08 20:17 2.43909 101.93109 4963 ft 233 kts 324°
2026-05-08 20:18 2.45242 101.92199 4831 ft 230 kts 325°
2026-05-08 20:18 2.46559 101.91315 4686 ft 226 kts 325°
2026-05-08 20:18 2.47856 101.90443 4565 ft 224 kts 325°
2026-05-08 20:18 2.49146 101.89574 4517 ft 224 kts 325°
2026-05-08 20:19 2.50438 101.88702 4508 ft 223 kts 325°
2026-05-08 20:19 2.51725 101.87832 4505 ft 223 kts 325°
2026-05-08 20:19 2.53003 101.86968 4506 ft 222 kts 325°
2026-05-08 20:19 2.54286 101.86102 4501 ft 223 kts 325°
2026-05-08 20:20 2.55574 101.85232 4374 ft 225 kts 324°
2026-05-08 20:20 2.56866 101.84359 4115 ft 222 kts 324°
2026-05-08 20:20 2.58134 101.83503 3827 ft 218 kts 324°
2026-05-08 20:20 2.59377 101.82664 3550 ft 212 kts 324°
2026-05-08 20:21 2.60579 101.81852 3282 ft 203 kts 324°
2026-05-08 20:21 2.61704 101.81093 3014 ft 186 kts 324°
2026-05-08 20:21 2.62737 101.80395 2780 ft 173 kts 324°
2026-05-08 20:21 2.63707 101.79740 2578 ft 168 kts 324°
2026-05-08 20:22 2.64671 101.79088 2383 ft 167 kts 324°
2026-05-08 20:22 2.65634 101.78437 2153 ft 165 kts 324°
2026-05-08 20:22 2.66562 101.77811 1895 ft 158 kts 324°
2026-05-08 20:22 2.67176 101.77393 1732 ft 152 kts 324°
2026-05-08 20:23 2.68221 101.76675 1556 ft 135 kts 324°
2026-05-08 20:23 2.69004 101.76144 1359 ft 136 kts 325°
2026-05-08 20:23 2.69811 101.75600 1227 ft 144 kts 325°
2026-05-08 20:23 2.70663 101.75013 1049 ft 153 kts 325°
2026-05-08 20:24 2.71554 101.74404 868 ft 156 kts 326°
2026-05-08 20:24 2.72451 101.73808 714 ft 154 kts 327°
2026-05-08 20:24 2.73330 101.73222 520 ft 151 kts 327°
2026-05-08 20:24 2.74202 101.72636 289 ft 149 kts 326°
2026-05-08 20:25 2.75040 101.72064 123 ft 142 kts 327°
2026-05-08 20:25 2.75813 101.71546 70 ft 123 kts 327°
2026-05-08 20:25 2.76241 101.71260 63 ft 101 kts 326°
2026-05-08 20:25 2.76796 101.70883 67 ft 38 kts 315°
2026-05-08 20:26 2.76874 101.70770 66 ft 25 kts 299°
2026-05-08 20:26 2.76917 101.70654 65 ft 10 kts 258°
2026-05-08 20:26 2.76859 101.70627 62 ft 12 kts 162°
2026-05-08 20:26 2.76806 101.70653 61 ft 14 kts 146°
2026-05-08 20:27 2.76722 101.70713 62 ft 16 kts 146°
2026-05-08 20:27 2.76618 101.70784 61 ft 20 kts 145°
2026-05-08 20:27 2.76496 101.70867 60 ft 22 kts 147°
2026-05-08 20:27 2.76367 101.70950 65 ft 23 kts 146°
2026-05-08 20:28 2.76223 101.71024 65 ft 23 kts 167°
2026-05-08 20:28 2.76067 101.71054 68 ft 22 kts 162°
2026-05-08 20:28 2.75932 101.71133 63 ft 19 kts 145°
2026-05-08 20:28 2.75818 101.71113 65 ft 19 kts 236°
2026-05-08 20:29 2.75739 101.70994 66 ft 22 kts 236°
2026-05-08 20:29 2.75651 101.70863 64 ft 17 kts 236°
2026-05-08 20:29 2.75570 101.70795 66 ft 13 kts 213°
2026-05-08 20:29 2.75520 101.70781 64 ft 5 kts 153°
2026-05-08 20:30 2.75509 101.70788 67 ft 3 kts 146°
2026-05-08 20:30 2.75505 101.70791 69 ft 0 kts 146°